Regional Weather Roundup
Issued by NWS

Home | Current Version | Previous Version | Graphics & Text | Print | Product List | Glossary On
Versions: 1 2 3 4 5 6 7 8 9 10 11 12 13 14 15 16 17 18 19 20 21 22 23 24 25 26 27 28 29 30 31 32 33 34 35 36 37 38 39 40 41 42 43 44 45 46 47 48 49 50
000
ASUS43 KOAX 272210
RWRNE

WEATHER ROUNDUP FOR NEBRASKA
NATIONAL WEATHER SERVICE OMAHA NE
500 PM CDT WED JUL 27 2016

NOTES: SATELLITE DATA IS BEING USED TO AUGMENT CLOUD COVER ABOVE
       12000 FEET.
       "FAIR" INDICATES FEW OR NO CLOUDS BELOW 12,000 FEET WITH NO
       SIGNIFICANT WEATHER AND/OR OBSTRUCTIONS TO VISIBILITY.

  * THESE STATIONS DO NOT REPORT WEATHER SUCH AS RAIN...SNOW OR FOG.

NEZ001>004-019>022-054>056-272300-
NEBRASKA PANHANDLE

CITY           SKY/WX    TMP DP  RH WIND       PRES   REMARKS
SCOTTSBLUFF    SUNNY     90  53  28 E7        30.09F
ALLIANCE       MOSUNNY   87  57  35 NE15G22   30.11R
CHADRON        SUNNY     83  60  45 NE17G30   30.10S
KIMBALL        SUNNY     87  57  36 SE6       30.14F
SIDNEY         MOSUNNY   89  58  34 E12G17    30.12F
$$

NEZ057>060-069>072-079>082-272300-
SOUTHWEST NEBRASKA

CITY           SKY/WX    TMP DP  RH WIND       PRES   REMARKS
NORTH PLATTE   SUNNY     87  62  43 N7        30.04F
IMPERIAL       SUNNY     88  59  37 VRB5      30.06F
LEXINGTON      MOSUNNY   84  69  59 SE6       30.03S
MCCOOK         SUNNY     89  64  43 E9        30.02F HX  90
OGALLALA       SUNNY     87  55  33 SE7       30.08S
$$

NEZ005>010-023>029-035>040-094-272300-
NORTH CENTRAL NEBRASKA

CITY           SKY/WX    TMP DP  RH WIND       PRES   REMARKS
VALENTINE      CLOUDY    67  59  75 MISG      30.10R
AINSWORTH      CLOUDY    62  57  86 N22G45    30.13R
BROKEN BOW     SUNNY     84  66  54 NE3       30.03F
O`NEILL        MOSUNNY   83  60  46 CALM      30.02S
ORD            SUNNY     85  60  42 CALM      30.00S
THEDFORD       SUNNY     85  62  44 CALM      30.07S
$$

NEZ041-046>049-061>064-073>077-083>087-272300-
SOUTH CENTRAL NEBRASKA

CITY           SKY/WX    TMP DP  RH WIND       PRES   REMARKS
GRAND ISLAND   MOSUNNY   87  63  44 NE8       29.99F
AURORA         CLOUDY    85  64  50 NE7       29.99F
HASTINGS       SUNNY     87  67  51 CALM      30.01F HX  90
HEBRON         SUNNY     87  63  44 CALM      29.97F
HOLDREGE       SUNNY     82  65  55 SE9       30.01F
KEARNEY *      SUNNY     90  27  10 SE7       30.02S
YORK           SUNNY     82  66  57 NE8       29.99S
$$

NEZ011>018-030>034-042>045-272300-
NORTHEAST NEBRASKA

CITY           SKY/WX    TMP DP  RH WIND       PRES   REMARKS
NORFOLK        SUNNY     85  63  47 E3        29.98F
ALBION         MOSUNNY   83  64  53 E5        30.00F
BLAIR          CLOUDY    83  70  64 CALM      29.96F
FREMONT        MOSUNNY   85  66  52 N6        29.96F
TEKAMAH        SUNNY     86  66  51 VRB3      29.95F
WAYNE          PTSUNNY   85  68  57 NE6       29.98F
$$

NEZ050>053-065>068-078-088>093-272300-
SOUTHEAST NEBRASKA

CITY           SKY/WX    TMP DP  RH WIND       PRES   REMARKS
LINCOLN        SUNNY     89  67  47 N9        29.96F HX  92
OMAHA EPPLEY   CLOUDY    86  69  56 NE6       29.95F HX  90
BEATRICE       MOSUNNY   89  66  47 NW12      29.96F HX  91
FALLS CITY     CLOUDY    88  70  55 W5        29.93F HX  93
NEBRASKA CITY  CLOUDY    86  66  51 N7        29.96S
PLATTSMOUTH    MOSUNNY   86  66  52 NW3       29.96F
$$

NEZ044-045-051>053-067-272300-
OMAHA AREA

CITY           SKY/WX    TMP DP  RH WIND       PRES   REMARKS
OMAHA EPPLEY   CLOUDY    86  69  56 NE6       29.95F HX  90
BLAIR          CLOUDY    83  70  64 CALM      29.96F
FREMONT        MOSUNNY   85  66  52 N6        29.96F
MILLARD        PTSUNNY   86  70  58 CALM      29.94F HX  90
OFFUTT AFB     MOSUNNY   86  70  58 N7        29.95F HX  90
PLATTSMOUTH    MOSUNNY   86  66  52 NW3       29.96F
WAHOO          FAIR      85  67  54 CALM      29.96F
$$




USA.gov is the U.S. government's official web portal to all federal, state and local government web resources and services.